Location: Unspecified
(0.0000°N, 0.0000°E)
Time: 18:46:23
(UTC+02:00)

Iridium 47 - Visible Passes

Search period start: 30 June 2015 00:00
Search period end: 10 July 2015 00:00
Orbit: 776 x 779 km, 86.4° (Epoch: 30 June)

Date Brightness Start Highest point End Pass type
(mag) Time Alt. Az. Time Alt. Az. Time Alt. Az.
30 Jun 7.4 21:08:01 10° SW 21:12:17 24° W 21:16:21 10° NW visible
01 Jul 5.9 20:33:39 10° SSW 20:38:45 54° W 20:43:49 10° NNW visible
02 Jul 7.6 07:27:39 10° NE 07:31:39 23° E 07:35:50 10° SE visible
03 Jul 7.9 21:09:21 10° SW 21:12:26 15° W 21:15:08 10° WNW visible
04 Jul 7.0 20:34:09 10° SSW 20:38:51 33° W 20:43:27 10° NNW visible
05 Jul 6.7 07:27:01 10° NNE 07:31:45 38° E 07:36:36 10° SSE visible
06 Jul 7.8 06:55:01 10° NE 06:58:12 17° E 07:01:41 10° SE visible
07 Jul 7.8 20:35:03 10° SW 20:38:58 21° W 20:42:40 10° NW visible
08 Jul 5.6 07:26:43 10° N 07:31:51 62° E 07:37:01 10° S visible
09 Jul 7.2 06:54:01 10° NNE 06:58:20 28° E 07:02:48 10° SSE visible
